EUTELSAT 7B

Last updated on Thu Oct 30 2025 00:02:49 GMT+0000 (Coordinated Universal Time)

1 39163U 13022A 25302.32972362 .00000058 00000+0 00000+0 0 9997 2 39163 0.0755 22.2547 0002203 286.7747 214.6009 1.00272044 45642
UTC large
Height (km)
Speed (km/s)
/
Latitude / Longitude
Inclination (degrees)
Orbital Period (minutes)
Azimuth
Elevation
Range (km)
Doppler Factor

Next 0 passes for location: London (51.5072 / 0.1276)

Sorry there are no passes over London.